Regional Weather Roundup
Issued by NWS New Orleans/Baton Rouge, LA

Home | Current Version | Previous Version | Graphics & Text | Print | Product List | Glossary On
Versions: 1 2 3 4 5 6 7 8 9 10 11 12 13 14 15 16 17 18 19 20 21 22 23 24 25 26 27 28 29 30 31 32 33 34 35 36 37 38 39 40 41 42 43 44 45 46 47 48 49 50
716
ASUS44 KLIX 301107
RWRLIX
NEW ORLEANS REGIONAL WEATHER ROUNDUP
NATIONAL WEATHER SERVICE NEW ORLEANS LA
600 AM CDT MON MAR 30 2015

NOTE: "FAIR" INDICATES FEW OR NO CLOUDS BELOW 12,000 FEET WITH NO
      SIGNIFICANT WEATHER AND/OR OBSTRUCTIONS TO VISIBILITY.
      SKY/WX - SKY CONDITION AND SIGNIFICANT WEATHER.
      TMP - AIR TEMPERATURE.     DP    - DEWPOINT TEMPERATURE.
      RH  - RELATIVE HUMIDITY.   PRES  - PRESSURE.
      HI  - HEAT INDEX.          WCI   - WIND CHILL INDEX.

*  THESE STATIONS ARE NOT NWS OR FAA STATIONS AND ARE NOT UNDER
   NWS QUALITY CONTROL.

LAZ038-040-048-061>063-065>067-069-301200-
SOUTHEAST LOUISIANA

CITY           SKY/WX    TMP DP  RH WIND       PRES   REMARKS
N.O. AUDUBON     N/A     61  61 100 MISG        N/A
N.O. INTL ARPT PTCLDY    61  58  90 CALM      30.19R
N.O. LAKEFRONT PTCLDY    67  62  84 CALM      30.20R
SLIDELL        CLOUDY    57  57 100 CALM      30.19R
BATON ROUGE    PTCLDY    59  57  93 CALM      30.19R
BOOTHVILLE     CLEAR     63  61  93 CALM      30.20R
BELLE CHASSE   CLOUDY    56  55  97 CALM      30.19R FOG
BOGALUSA*      FOG       58  55  92 CALM      30.21R VSB 1/4
GALLIANO*      CLOUDY    55  55  98 CALM      30.20R
NEW ROADS*       N/A     58  58  98 CALM      30.19S FOG
GONZALES*      CLOUDY    57  57 100 CALM      30.20R FOG
HAMMOND*       MOCLDY    57  55  94 CALM      30.21S
HOUMA*         CLEAR     58  58  99 CALM      30.19R FOG
PORT FOURCHON* MOSUNNY   70  66  88 SW5       30.22R

$$

MSZ070-080>082-301200-
SOUTHERN MISSISSIPPI

CITY           SKY/WX    TMP DP  RH WIND       PRES   REMARKS
MCCOMB         MOCLDY    58  56  93 NW3       30.20R
GULFPORT       MOCLDY    62  60  93 CALM      30.19R
BILOXI         MOCLDY    64  64 100 CALM      30.19R
PASCAGOULA     MOCLDY    65  63  93 S5        30.20R

$$

COASTAL OBSERVATIONS
LAKE AND NEARSHORE STATIONS

STATION/POSITION TIME  TEMP    WIND        PRES    WAVE
                       AIR SEA DIR/SP/G            HT/PER
                 (UTC) (F)     (DEG/KT/KT) (MB)    (FT/S)
PASCAGOULA       1000   66     200/  7/  8 1021.8
WAVELAND YACHT   1000   64 65     CALM     1022.0
GRAND ISLE       1000   68 67  240/  3/  4 1021.7
SOUTHWEST PASS   1000   66 54  190/ 15/ 16 1021.9
NEW CANAL        1000   66     260/  1/  2 1022.3
SHELL BEACH      1000   66 69  200/  2/  2 1021.9

OFFSHORE STATIONS

STATION/POSITION TIME  TEMP    WIND        PRES    WAVE
                       AIR SEA DIR/SP/G            HT/PER
                 (UTC) (F)     (DEG/KT/KT) (MB)    (FT/S)
64 S DAUPHIN ISL 1050   69 70  200/ 12/ 14 1023.5    4/ 5

$$




USA.gov is the U.S. government's official web portal to all federal, state and local government web resources and services.